Wind_Speed
15 16 17 17 19 20 23 22 22 22 22 23 25 26 29 31 32 35 37 36 32 29 26 21 18 17 17 18 16 15 13 11 9
18 18 20 21 22 25 28 28 26 25 24 25 26 26 28 32 32 33 36 35 34 27 23 17 16 14 13 14 14 12 12 10 8
20 21 22 24 26 28 31 32 29 28 27 27 26 27 29 33 34 34 35 35 33 27 21 16 12 11 11 9 8 10 10 10 11
21 23 25 28 30 33 33 31 31 30 30 29 29 29 30 33 35 36 35 35 31 26 19 14 10 10 9 8 9 10 11 11 12
21 25 28 30 31 31 30 30 29 30 30 31 30 31 33 34 35 36 35 34 30 24 20 15 13 12 12 9 10 12 14 15 15
22 25 25 27 28 28 30 30 30 30 30 30 31 32 34 36 37 37 36 33 31 25 23 18 16 17 14 13 13 14 15 17 18
23 23 25 27 28 29 29 30 30 30 31 31 33 33 35 37 37 38 36 34 33 28 25 22 21 20 19 17 17 18 19 19 20
22 22 26 28 28 28 28 29 29 29 30 32 33 34 35 37 38 38 36 34 33 31 29 28 25 24 23 21 22 22 24 23 24
22 23 27 29 32 31 30 30 30 30 31 32 33 35 37 39 39 39 38 34 33 32 31 32 30 28 27 27 28 27 29 29 28
24 25 27 30 32 33 34 33 32 33 34 35 37 38 38 38 39 40 39 37 33 32 31 34 35 34 33 33 33 33 35 36 37
26 28 30 32 34 35 36 36 34 34 34 36 38 39 40 40 41 42 41 40 38 34 32 33 37 40 40 41 40 39 40 41 41
30 32 33 35 36 38 38 39 38 38 38 38 39 41 42 43 44 45 44 42 42 40 35 35 35 40 43 44 45 45 45 45 45
32 34 37 38 38 40 41 42 42 42 42 42 41 41 42 42 43 44 45 45 44 42 40 38 38 38 40 43 43 45 47 48 49
35 36 39 41 41 41 43 45 46 46 46 47 47 45 46 46 47 47 48 48 47 45 43 42 41 41 43 43 43 42 43 44 45
39 40 40 42 43 44 46 48 49 48 50 51 50 51 49 49 49 50 51 50 51 49 47 46 43 43 45 45 45 46 45 45 46
44 44 45 47 47 48 49 51 52 52 52 54 53 52 51 52 52 54 54 52 52 51 51 51 48 44 44 44 45 45 46 46 46
47 48 49 52 51 52 53 55 55 55 56 56 56 55 54 54 56 55 57 55 55 55 53 51 52 48 44 44 44 44 45 44 46
52 52 53 55 56 56 57 57 57 57 57 57 59 58 58 59 57 57 58 57 57 55 57 52 50 50 45 44 44 43 43 44 45
55 57 57 57 58 59 58 59 59 60 61 63 61 61 62 63 62 59 58 59 63 59 53 58 48 48 47 44 43 43 42 44 42
57 58 60 59 61 61 63 65 66 66 66 64 66 65 63 63 66 67 65 65 65 61 57 54 48 45 48 44 43 45 42 44 42
Wind_Direction
305 304 304 305 324 330 323 317 314 314 317 322 328 334 332 334 334 337 338 337 338 338 339 336 342 350 353 345 344 351 352 354 4
306 310 307 310 312 317 317 316 308 311 312 314 323 330 329 329 331 332 336 337 338 336 337 333 340 344 354 340 344 357 353 351 355
307 312 312 308 307 311 313 314 306 308 308 309 316 321 325 327 327 329 331 335 335 333 329 324 328 335 349 345 350 345 348 350 338
307 313 311 307 309 310 311 311 307 306 306 307 310 313 318 320 323 326 329 331 330 325 316 308 303 312 326 331 326 322 323 324 322
312 313 313 312 309 308 310 310 308 307 307 307 307 307 309 315 318 321 324 325 324 312 304 287 290 289 290 297 297 305 307 309 309
309 315 325 329 326 323 319 315 311 309 308 309 307 306 307 311 314 317 319 321 319 305 287 281 277 279 273 278 286 290 290 293 297
311 325 331 331 332 328 324 320 316 313 312 312 310 308 308 308 310 313 317 318 315 303 279 272 270 272 271 270 276 280 283 281 283
313 324 330 331 328 323 320 319 319 317 315 315 314 312 309 307 308 310 314 317 314 304 278 270 265 267 268 272 277 275 276 276 277
307 318 324 329 328 324 319 316 315 316 317 317 316 314 311 310 310 310 312 313 312 309 286 274 268 265 267 270 273 271 276 279 280
297 306 316 323 328 331 329 324 322 318 316 317 316 316 313 311 312 311 310 310 309 306 300 279 274 268 267 268 271 273 277 280 283
291 297 307 315 321 324 326 328 327 322 320 319 319 320 319 316 313 311 310 308 308 304 300 292 279 273 271 270 271 273 277 280 285
288 291 298 306 310 314 317 319 321 322 321 320 320 320 319 318 315 314 311 308 306 304 298 293 291 284 281 276 274 277 279 284 288
285 288 291 296 300 305 307 308 310 312 312 314 316 318 315 314 313 312 310 307 305 302 298 291 289 290 290 288 286 285 287 287 288
283 286 290 293 295 296 298 300 303 306 307 310 312 313 316 315 312 310 308 307 305 299 295 291 287 285 287 292 295 297 298 297 296
278 282 286 291 294 296 297 297 298 301 304 307 309 309 311 311 310 308 306 305 305 299 295 292 288 283 284 286 290 295 299 300 301
276 283 288 289 293 296 298 297 297 299 301 304 304 306 306 308 307 307 305 302 301 299 295 292 290 287 283 285 288 292 295 298 302
279 283 285 288 292 297 299 301 300 300 301 302 301 303 303 302 305 304 303 299 299 296 293 292 291 290 288 286 288 291 294 296 299
279 284 287 289 293 297 300 300 298 298 300 300 301 300 301 300 302 302 300 297 294 292 291 286 287 287 288 287 287 290 292 296 301
283 285 288 290 293 295 296 296 296 296 296 296 296 298 299 299 298 298 297 295 292 288 285 286 286 284 286 285 286 289 291 297 301
289 291 293 294 294 295 294 294 296 295 295 295 295 296 297 299 299 298 295 292 290 288 285 288 286 281 284 283 287 289 291 294 295
Height
5864 5863 5861 5859 5856 5854 5852 5849 5847 5845 5842 5839 5835 5831 5827 5823 5818 5813 5808 5803 5797 5793 5789 5785 5783 5780 5776 5775 5773 5770 5768 5767 5764
5862 5861 5858 5855 5853 5851 5848 5846 5844 5842 5839 5836 5832 5828 5825 5820 5815 5810 5805 5800 5795 5791 5787 5784 5780 5778 5774 5775 5773 5770 5768 5766 5764
5860 5857 5855 5853 5850 5847 5845 5843 5840 5838 5835 5832 5829 5825 5821 5817 5812 5807 5801 5796 5792 5788 5785 5782 5779 5777 5773 5773 5771 5769 5767 5765 5764
5857 5855 5852 5850 5847 5844 5841 5838 5836 5833 5830 5827 5824 5821 5817 5813 5809 5803 5798 5793 5790 5785 5781 5779 5776 5775 5772 5770 5769 5768 5766 5763 5762
5854 5852 5849 5846 5842 5839 5836 5833 5831 5828 5825 5823 5819 5816 5812 5808 5804 5799 5794 5789 5785 5781 5779 5776 5772 5771 5769 5766 5766 5765 5763 5761 5759
5851 5848 5845 5842 5838 5835 5832 5829 5826 5823 5820 5817 5814 5811 5807 5804 5800 5795 5791 5785 5780 5777 5775 5772 5770 5768 5765 5764 5763 5761 5759 5758 5756
5846 5844 5841 5837 5834 5831 5828 5824 5821 5818 5815 5811 5808 5805 5802 5798 5794 5790 5786 5782 5778 5773 5771 5768 5766 5764 5762 5758 5757 5756 5754 5751 5750
5842 5840 5837 5834 5830 5827 5823 5820 5816 5813 5810 5806 5803 5800 5796 5793 5789 5784 5781 5778 5774 5770 5766 5764 5762 5760 5757 5756 5754 5751 5749 5746 5744
5838 5836 5833 5830 5826 5823 5819 5815 5812 5808 5805 5802 5798 5795 5791 5788 5784 5780 5776 5773 5769 5765 5762 5760 5758 5755 5753 5750 5747 5745 5744 5742 5739
5834 5832 5829 5826 5823 5819 5815 5812 5808 5805 5801 5798 5794 5790 5786 5782 5778 5775 5771 5767 5764 5760 5756 5754 5752 5749 5746 5743 5742 5739 5736 5734 5731
5831 5828 5826 5823 5819 5816 5812 5808 5805 5801 5797 5794 5790 5786 5782 5777 5773 5769 5766 5761 5758 5754 5750 5747 5745 5742 5739 5736 5733 5731 5728 5726 5723
5826 5824 5821 5818 5814 5810 5807 5803 5800 5796 5793 5789 5785 5781 5777 5773 5768 5764 5760 5756 5752 5748 5744 5740 5737 5734 5731 5729 5726 5723 5720 5718 5714
5820 5817 5814 5812 5808 5804 5800 5796 5793 5790 5786 5782 5778 5775 5770 5765 5760 5756 5751 5747 5744 5741 5736 5732 5729 5725 5722 5718 5716 5713 5710 5707 5703
5814 5812 5809 5805 5802 5798 5794 5790 5787 5783 5779 5775 5772 5768 5764 5760 5755 5749 5744 5739 5735 5731 5727 5723 5719 5716 5713 5709 5707 5703 5699 5696 5691
5805 5803 5800 5797 5795 5793 5789 5784 5780 5777 5772 5769 5765 5761 5757 5752 5746 5741 5736 5732 5727 5723 5718 5713 5710 5706 5702 5700 5697 5694 5690 5686 5682
5797 5797 5794 5790 5787 5784 5781 5777 5773 5769 5765 5761 5756 5752 5748 5743 5738 5733 5728 5722 5717 5713 5709 5704 5700 5696 5693 5689 5687 5684 5680 5676 5672
5791 5789 5785 5781 5778 5775 5771 5768 5764 5760 5754 5751 5746 5743 5739 5734 5729 5723 5718 5713 5706 5702 5698 5693 5689 5687 5683 5680 5677 5673 5670 5666 5661
5781 5779 5776 5772 5768 5766 5762 5758 5753 5749 5745 5739 5735 5731 5728 5723 5719 5713 5706 5700 5694 5690 5685 5681 5678 5676 5672 5669 5666 5663 5659 5655 5651
5771 5768 5766 5762 5758 5755 5750 5745 5741 5737 5732 5727 5723 5718 5714 5708 5707 5703 5696 5687 5680 5675 5671 5667 5664 5664 5660 5658 5655 5652 5649 5645 5640
5760 5756 5753 5750 5746 5742 5737 5732 5728 5724 5718 5714 5709 5706 5701 5696 5691 5689 5683 5675 5667 5660 5655 5654 5653 5651 5649 5647 5645 5642 5639 5635 5630